Time,TemperatureF,DewpointF,PressureIn,WindDirection,WindDirectionDegrees,WindSpeedMPH,WindSpeedGustMPH,Humidity,HourlyPrecipIn,Conditions,Clouds,dailyrainin,SoftwareType,DateUTC
2013-01-25 00:03:00,29.0,9.0,30.44,ENE,64,1.0,3.0,42,0.00,,,0.00,,2013-01-25 05:03:00,
2013-01-25 00:12:00,29.0,9.0,30.44,ENE,64,1.0,3.0,42,0.00,,,0.00,,2013-01-25 05:12:00,
2013-01-25 00:22:00,29.0,9.0,30.45,ENE,75,1.0,2.0,42,0.00,,,0.00,,2013-01-25 05:22:00,
2013-01-25 00:32:00,29.0,9.0,30.45,ENE,75,0.0,2.0,43,0.00,,,0.00,,2013-01-25 05:32:00,
2013-01-25 00:43:00,29.0,9.0,30.45,ENE,75,0.0,2.0,43,0.00,,,0.00,,2013-01-25 05:43:00,
2013-01-25 00:52:00,29.0,10.0,30.45,ENE,75,1.0,2.0,44,0.00,,,0.00,,2013-01-25 05:52:00,
2013-01-25 01:02:00,29.0,10.0,30.45,ENE,75,1.0,2.0,44,0.00,,,0.00,,2013-01-25 06:02:00,
2013-01-25 01:12:00,29.0,10.0,30.45,ENE,75,1.0,2.0,44,0.00,,,0.00,,2013-01-25 06:12:00,
2013-01-25 01:22:00,29.0,10.0,30.45,ENE,75,1.0,2.0,44,0.00,,,0.00,,2013-01-25 06:22:00,
2013-01-25 01:32:00,28.0,9.0,30.45,ENE,75,0.0,3.0,44,0.00,,,0.00,,2013-01-25 06:32:00,
2013-01-25 01:42:00,28.0,9.0,30.45,ENE,75,0.0,3.0,44,0.00,,,0.00,,2013-01-25 06:42:00,
2013-01-25 01:52:00,28.0,9.0,30.45,ENE,75,0.0,2.0,45,0.00,,,0.00,,2013-01-25 06:52:00,
2013-01-25 02:02:00,28.0,10.0,30.46,ENE,75,0.0,2.0,46,0.00,,,0.00,,2013-01-25 07:02:00,
2013-01-25 02:11:00,28.0,10.0,30.46,ENE,75,0.0,2.0,46,0.00,,,0.00,,2013-01-25 07:11:00,
2013-01-25 02:22:00,27.0,9.0,30.47,ENE,75,0.0,2.0,46,0.00,,,0.00,,2013-01-25 07:22:00,
2013-01-25 02:32:00,27.0,10.0,30.46,ENE,75,1.0,2.0,48,0.00,,,0.00,,2013-01-25 07:32:00,
2013-01-25 02:42:00,27.0,10.0,30.46,ENE,75,1.0,2.0,48,0.00,,,0.00,,2013-01-25 07:42:00,
2013-01-25 02:52:00,27.0,10.0,30.45,ENE,75,0.0,2.0,48,0.00,,,0.00,,2013-01-25 07:52:00,
2013-01-25 03:02:00,27.0,10.0,30.44,ENE,75,0.0,2.0,48,0.00,,,0.00,,2013-01-25 08:02:00,
2013-01-25 03:12:00,27.0,10.0,30.45,ENE,75,0.0,1.0,49,0.00,,,0.00,,2013-01-25 08:12:00,
2013-01-25 03:21:00,27.0,10.0,30.45,ENE,75,0.0,1.0,49,0.00,,,0.00,,2013-01-25 08:21:00,
2013-01-25 03:32:00,26.0,9.0,30.45,ENE,75,0.0,2.0,49,0.00,,,0.00,,2013-01-25 08:32:00,
2013-01-25 03:42:00,26.0,9.0,30.45,ENE,75,0.0,2.0,49,0.00,,,0.00,,2013-01-25 08:42:00,
2013-01-25 03:52:00,26.0,11.0,30.45,ENE,75,0.0,0.0,53,0.00,,,0.00,,2013-01-25 08:52:00,
2013-01-25 04:02:00,26.0,10.0,30.45,ENE,75,0.0,0.0,51,0.00,,,0.00,,2013-01-25 09:02:00,
2013-01-25 04:11:00,26.0,10.0,30.45,ENE,75,0.0,0.0,51,0.00,,,0.00,,2013-01-25 09:11:00,
2013-01-25 04:21:00,26.0,10.0,30.43,ENE,75,0.0,2.0,51,0.00,,,0.00,,2013-01-25 09:21:00,
2013-01-25 04:32:00,26.0,11.0,30.43,ENE,75,0.0,1.0,52,0.00,,,0.00,,2013-01-25 09:32:00,
2013-01-25 04:42:00,26.0,11.0,30.43,ENE,75,0.0,1.0,52,0.00,,,0.00,,2013-01-25 09:42:00,
2013-01-25 04:52:00,26.0,11.0,30.43,ENE,75,0.0,1.0,53,0.00,,,0.00,,2013-01-25 09:52:00,
2013-01-25 05:02:00,26.0,12.0,30.43,ENE,75,0.0,2.0,54,0.00,,,0.00,,2013-01-25 10:02:00,
2013-01-25 05:12:00,26.0,12.0,30.43,ENE,75,0.0,2.0,54,0.00,,,0.00,,2013-01-25 10:12:00,
2013-01-25 05:22:00,26.0,12.0,30.41,ENE,75,0.0,1.0,54,0.00,,,0.00,,2013-01-25 10:22:00,
2013-01-25 05:32:00,26.0,11.0,30.41,ENE,75,0.0,1.0,53,0.00,,,0.00,,2013-01-25 10:32:00,
2013-01-25 05:42:00,26.0,11.0,30.41,ENE,75,0.0,1.0,53,0.00,,,0.00,,2013-01-25 10:42:00,
2013-01-25 05:52:00,26.0,12.0,30.40,ESE,116,3.0,7.0,56,0.00,,,0.00,,2013-01-25 10:52:00,
2013-01-25 06:03:00,27.0,14.0,30.41,NE,42,0.0,2.0,58,0.00,,,0.00,,2013-01-25 11:03:00,
2013-01-25 06:11:00,27.0,14.0,30.41,NE,42,0.0,2.0,58,0.00,,,0.00,,2013-01-25 11:11:00,
2013-01-25 06:22:00,27.0,10.0,30.42,ESE,117,0.0,4.0,49,0.00,,,0.00,,2013-01-25 11:22:00,
2013-01-25 06:33:00,28.0,10.0,30.41,ENE,64,1.0,3.0,47,0.00,,,0.00,,2013-01-25 11:33:00,
2013-01-25 06:42:00,28.0,10.0,30.41,ENE,64,1.0,3.0,47,0.00,,,0.00,,2013-01-25 11:42:00,
2013-01-25 06:52:00,28.0,10.0,30.41,SE,124,2.0,4.0,46,0.00,,,0.00,,2013-01-25 11:52:00,
2013-01-25 07:02:00,28.0,9.0,30.41,SE,132,1.0,4.0,45,0.00,,,0.00,,2013-01-25 12:02:00,
2013-01-25 07:12:00,28.0,9.0,30.41,SE,132,1.0,4.0,45,0.00,,,0.00,,2013-01-25 12:12:00,
2013-01-25 07:22:00,28.0,10.0,30.41,SE,131,2.0,6.0,46,0.00,,,0.00,,2013-01-25 12:22:00,
2013-01-25 07:32:00,28.0,10.0,30.40,ESE,119,2.0,7.0,46,0.00,,,0.00,,2013-01-25 12:32:00,
2013-01-25 07:42:00,28.0,10.0,30.40,ESE,119,2.0,7.0,46,0.00,,,0.00,,2013-01-25 12:42:00,
2013-01-25 09:23:00,28.0,14.0,30.39,ESE,120,3.0,5.0,56,0.00,,,0.00,,2013-01-25 14:23:00,
2013-01-25 09:33:00,28.0,14.0,30.39,SE,126,3.0,6.0,55,0.00,,,0.00,,2013-01-25 14:33:00,
2013-01-25 09:42:00,28.0,14.0,30.39,SE,126,3.0,6.0,55,0.00,,,0.00,,2013-01-25 14:42:00,
2013-01-25 09:53:00,28.0,14.0,30.39,ESE,113,2.0,5.0,56,0.00,,,0.00,,2013-01-25 14:53:00,
2013-01-25 10:02:00,28.0,14.0,30.37,ESE,121,2.0,5.0,56,0.00,,,0.00,,2013-01-25 15:02:00,
2013-01-25 10:12:00,28.0,14.0,30.37,ESE,121,2.0,5.0,56,0.00,,,0.00,,2013-01-25 15:12:00,
2013-01-25 10:22:00,28.0,14.0,30.39,NE,46,0.0,3.0,56,0.00,,,0.00,,2013-01-25 15:22:00,
2013-01-25 10:32:00,28.0,14.0,30.37,ESE,123,4.0,7.0,56,0.00,,,0.00,,2013-01-25 15:32:00,
2013-01-25 10:42:00,28.0,14.0,30.37,ESE,123,4.0,7.0,56,0.00,,,0.00,,2013-01-25 15:42:00,
2013-01-25 10:53:00,28.0,15.0,30.36,ESE,123,2.0,4.0,58,0.00,,,0.00,,2013-01-25 15:53:00,
2013-01-25 11:03:00,28.0,15.0,30.36,ESE,123,2.0,4.0,58,0.00,,,0.00,,2013-01-25 16:03:00,
2013-01-25 11:12:00,28.0,15.0,30.36,ESE,123,2.0,4.0,58,0.00,,,0.00,,2013-01-25 16:12:00,
2013-01-25 11:23:00,28.0,15.0,30.35,SE,132,0.0,2.0,57,0.00,,,0.00,,2013-01-25 16:23:00,
2013-01-25 11:33:00,29.0,17.0,30.35,SE,132,0.0,1.0,61,0.00,,,0.00,,2013-01-25 16:33:00,
2013-01-25 11:43:00,29.0,17.0,30.35,SE,132,0.0,1.0,61,0.00,,,0.00,,2013-01-25 16:43:00,
2013-01-25 11:53:00,29.0,17.0,30.33,East,86,0.0,2.0,60,0.00,,,0.00,,2013-01-25 16:53:00,
2013-01-25 12:03:00,29.0,18.0,30.33,NE,53,0.0,2.0,62,0.00,,,0.00,,2013-01-25 17:03:00,
2013-01-25 12:12:00,29.0,18.0,30.33,NE,53,0.0,2.0,62,0.00,,,0.00,,2013-01-25 17:12:00,
2013-01-25 12:22:00,29.0,16.0,30.32,NE,53,1.0,3.0,59,0.00,,,0.00,,2013-01-25 17:22:00,
2013-01-25 12:33:00,29.0,17.0,30.30,NE,53,0.0,2.0,61,0.00,,,0.00,,2013-01-25 17:33:00,
2013-01-25 12:43:00,29.0,17.0,30.30,NE,53,0.0,2.0,61,0.00,,,0.00,,2013-01-25 17:43:00,
2013-01-25 12:53:00,29.0,17.0,30.28,NE,53,0.0,2.0,61,0.00,,,0.00,,2013-01-25 17:53:00,
2013-01-25 13:03:00,29.0,17.0,30.26,SE,129,0.0,3.0,60,0.00,,,0.00,,2013-01-25 18:03:00,
2013-01-25 13:12:00,29.0,17.0,30.26,SE,129,0.0,3.0,60,0.00,,,0.00,,2013-01-25 18:12:00,
2013-01-25 13:23:00,29.0,18.0,30.26,WNW,294,1.0,3.0,64,0.00,,,0.00,,2013-01-25 18:23:00,
2013-01-25 13:33:00,28.0,18.0,30.25,WNW,294,0.0,2.0,66,0.00,,,0.00,,2013-01-25 18:33:00,
2013-01-25 13:42:00,28.0,18.0,30.25,WNW,294,0.0,2.0,66,0.00,,,0.00,,2013-01-25 18:42:00,
2013-01-25 13:53:00,28.0,18.0,30.24,WNW,294,1.0,3.0,67,0.00,,,0.00,,2013-01-25 18:53:00,
2013-01-25 14:03:00,28.0,19.0,30.25,NW,307,2.0,6.0,69,0.00,,,0.00,,2013-01-25 19:03:00,
2013-01-25 14:12:00,28.0,19.0,30.25,NW,307,2.0,6.0,69,0.00,,,0.00,,2013-01-25 19:12:00,
2013-01-25 14:23:00,29.0,20.0,30.24,WNW,294,0.0,3.0,69,0.00,,,0.00,,2013-01-25 19:23:00,
2013-01-25 14:33:00,29.0,21.0,30.23,WNW,299,0.0,2.0,73,0.00,,,0.00,,2013-01-25 19:33:00,
2013-01-25 14:42:00,29.0,21.0,30.23,WNW,299,0.0,2.0,73,0.00,,,0.00,,2013-01-25 19:42:00,
2013-01-25 14:53:00,29.0,23.0,30.22,WNW,301,1.0,4.0,77,0.00,,,0.00,,2013-01-25 19:53:00,
2013-01-25 15:03:00,29.0,24.0,30.23,NW,315,0.0,8.0,82,0.00,,,0.00,,2013-01-25 20:03:00,
2013-01-25 15:12:00,29.0,24.0,30.23,NW,315,0.0,8.0,82,0.00,,,0.00,,2013-01-25 20:12:00,
2013-01-25 15:23:00,28.0,23.0,30.22,West,275,0.0,2.0,81,0.00,,,0.00,,2013-01-25 20:23:00,
2013-01-25 15:32:00,28.0,23.0,30.19,West,276,0.0,4.0,81,0.00,,,0.00,,2013-01-25 20:32:00,
2013-01-25 15:42:00,28.0,23.0,30.19,West,276,0.0,4.0,81,0.00,,,0.00,,2013-01-25 20:42:00,
2013-01-25 15:53:00,28.0,23.0,30.20,West,267,0.0,4.0,82,0.00,,,0.00,,2013-01-25 20:53:00,
2013-01-25 16:02:00,28.0,24.0,30.19,WSW,257,1.0,4.0,83,0.00,,,0.00,,2013-01-25 21:02:00,
2013-01-25 16:12:00,28.0,24.0,30.19,WSW,257,1.0,4.0,83,0.00,,,0.00,,2013-01-25 21:12:00,
2013-01-25 16:23:00,28.0,24.0,30.19,WSW,257,1.0,4.0,83,0.00,,,0.00,,2013-01-25 21:23:00,
2013-01-25 16:33:00,28.0,24.0,30.18,WSW,250,1.0,4.0,84,0.00,,,0.00,,2013-01-25 21:33:00,
2013-01-25 16:42:00,28.0,24.0,30.18,WSW,250,1.0,4.0,84,0.00,,,0.00,,2013-01-25 21:42:00,
2013-01-25 16:52:00,28.0,24.0,30.16,SSW,208,5.0,8.0,84,0.00,,,0.00,,2013-01-25 21:52:00,
2013-01-25 17:03:00,28.0,24.0,30.16,WSW,239,2.0,7.0,84,0.00,,,0.00,,2013-01-25 22:03:00,
2013-01-25 17:12:00,28.0,24.0,30.16,WSW,239,2.0,7.0,84,0.00,,,0.00,,2013-01-25 22:12:00,
2013-01-25 17:23:00,28.0,24.0,30.17,WSW,242,2.0,6.0,84,0.00,,,0.00,,2013-01-25 22:23:00,
2013-01-25 17:33:00,28.0,24.0,30.16,SSW,210,3.0,8.0,85,0.00,,,0.00,,2013-01-25 22:33:00,
2013-01-25 17:42:00,28.0,24.0,30.16,SSW,210,3.0,8.0,85,0.00,,,0.00,,2013-01-25 22:42:00,
2013-01-25 17:53:00,28.0,24.0,30.16,SW,232,4.0,8.0,85,0.00,,,0.00,,2013-01-25 22:53:00,
2013-01-25 18:02:00,28.0,24.0,30.16,WSW,241,1.0,5.0,85,0.00,,,0.00,,2013-01-25 23:02:00,
2013-01-25 18:12:00,28.0,24.0,30.16,WSW,241,1.0,5.0,85,0.00,,,0.00,,2013-01-25 23:12:00,
2013-01-25 18:22:00,28.0,24.0,30.16,SW,219,5.0,8.0,85,0.00,,,0.00,,2013-01-25 23:22:00,
2013-01-25 18:32:00,29.0,25.0,30.16,South,186,6.0,9.0,85,0.00,,,0.00,,2013-01-25 23:32:00,
2013-01-25 18:42:00,29.0,25.0,30.16,South,186,6.0,9.0,85,0.00,,,0.00,,2013-01-25 23:42:00,
2013-01-25 18:53:00,29.0,25.0,30.16,South,188,4.0,12.0,85,0.00,,,0.00,,2013-01-25 23:53:00,
2013-01-25 19:02:00,29.0,25.0,30.16,South,176,2.0,8.0,84,0.00,,,0.00,,2013-01-26 00:02:00,
2013-01-25 19:12:00,29.0,25.0,30.16,South,176,2.0,8.0,84,0.00,,,0.00,,2013-01-26 00:12:00,
2013-01-25 19:22:00,29.0,25.0,30.16,South,171,1.0,8.0,84,0.00,,,0.00,,2013-01-26 00:22:00,
2013-01-25 19:32:00,30.0,26.0,30.14,SSW,197,6.0,8.0,85,0.00,,,0.00,,2013-01-26 00:32:00,
2013-01-25 19:42:00,30.0,26.0,30.14,SSW,197,6.0,8.0,85,0.00,,,0.00,,2013-01-26 00:42:00,
2013-01-25 19:53:00,30.0,25.0,30.14,SW,217,7.0,11.0,83,0.00,,,0.00,,2013-01-26 00:53:00,
2013-01-25 20:02:00,30.0,25.0,30.14,SW,217,7.0,11.0,83,0.00,,,0.00,,2013-01-26 01:02:00,
2013-01-25 20:12:00,30.0,25.0,30.14,SW,217,7.0,11.0,83,0.00,,,0.00,,2013-01-26 01:12:00,
2013-01-25 20:22:00,31.0,26.0,30.14,SW,227,5.0,11.0,82,0.00,,,0.00,,2013-01-26 01:22:00,
2013-01-25 20:32:00,31.0,26.0,30.13,SSW,209,4.0,13.0,82,0.00,,,0.00,,2013-01-26 01:32:00,
2013-01-25 20:42:00,31.0,26.0,30.13,SSW,209,4.0,13.0,82,0.00,,,0.00,,2013-01-26 01:42:00,
2013-01-25 20:52:00,32.0,27.0,30.12,SW,217,5.0,9.0,81,0.00,,,0.00,,2013-01-26 01:52:00,
2013-01-25 21:02:00,32.0,27.0,30.13,SW,228,2.0,5.0,81,0.00,,,0.00,,2013-01-26 02:02:00,
2013-01-25 21:11:00,32.0,27.0,30.13,SW,228,2.0,5.0,81,0.00,,,0.00,,2013-01-26 02:11:00,
2013-01-25 21:22:00,32.0,27.0,30.13,West,263,1.0,5.0,81,0.00,,,0.00,,2013-01-26 02:22:00,
2013-01-25 21:32:00,33.0,28.0,30.13,West,271,1.0,4.0,81,0.00,,,0.00,,2013-01-26 02:32:00,
2013-01-25 21:42:00,33.0,28.0,30.13,West,271,1.0,4.0,81,0.00,,,0.00,,2013-01-26 02:42:00,
2013-01-25 21:52:00,33.0,28.0,30.12,WSW,252,3.0,9.0,81,0.00,,,0.00,,2013-01-26 02:52:00,
2013-01-25 22:02:00,33.0,28.0,30.13,West,261,2.0,6.0,80,0.00,,,0.00,,2013-01-26 03:02:00,
2013-01-25 22:12:00,33.0,28.0,30.13,West,261,2.0,6.0,80,0.00,,,0.00,,2013-01-26 03:12:00,
2013-01-25 22:22:00,34.0,28.0,30.12,West,263,3.0,7.0,80,0.00,,,0.00,,2013-01-26 03:22:00,
2013-01-25 22:32:00,34.0,28.0,30.12,West,281,1.0,7.0,80,0.00,,,0.00,,2013-01-26 03:32:00,
2013-01-25 22:43:00,34.0,28.0,30.12,West,281,1.0,7.0,80,0.00,,,0.00,,2013-01-26 03:43:00,
2013-01-25 22:52:00,34.0,28.0,30.11,SW,231,2.0,7.0,80,0.00,,,0.00,,2013-01-26 03:52:00,
2013-01-25 23:02:00,34.0,28.0,30.11,West,264,1.0,7.0,80,0.00,,,0.00,,2013-01-26 04:02:00,
2013-01-25 23:12:00,34.0,28.0,30.11,West,264,1.0,7.0,80,0.00,,,0.00,,2013-01-26 04:12:00,
2013-01-25 23:21:00,34.0,28.0,30.11,West,277,0.0,3.0,80,0.00,,,0.00,,2013-01-26 04:21:00,
2013-01-25 23:32:00,34.0,28.0,30.11,West,277,0.0,1.0,80,0.00,,,0.00,,2013-01-26 04:32:00,
2013-01-25 23:42:00,34.0,28.0,30.11,West,277,0.0,1.0,80,0.00,,,0.00,,2013-01-26 04:42:00,
2013-01-25 23:52:00,33.0,28.0,30.10,West,277,0.0,2.0,81,0.00,,,0.00,,2013-01-26 04:52:00,